Location: Marcé
(47.5801°N, 0.3280°W)
Time: 19:21:52
(UTC+01:00)

Altair - Visible Passes

Search period start: 06 December 2021 00:00
Search period end: 16 December 2021 00:00
Orbit: 1502 x 1682 km, 47.2° (Epoch: 05 December)

Date Brightness Start Highest point End Pass type
(mag) Time Alt. Az. Time Alt. Az. Time Alt. Az.
06 Dec 7.6 17:33:23 10° WSW 17:42:55 82° SSE 17:52:10 10° E visible
06 Dec 7.4 19:38:16 10° W 19:47:40 85° S 19:51:15 43° ESE visible
06 Dec 8.3 21:43:05 10° WNW 21:49:17 41° WSW 21:49:17 41° WSW visible
07 Dec 7.4 19:13:04 10° W 19:22:29 86° S 19:27:35 31° ESE visible
07 Dec 7.9 21:17:53 10° WNW 21:25:37 51° SW 21:25:37 51° SW visible
08 Dec 7.4 18:47:51 10° W 18:57:19 87° S 19:03:58 22° E visible
08 Dec 7.7 20:52:41 10° WNW 21:01:39 56° SSW 21:02:00 56° SSW visible
08 Dec 9.5 22:58:33 10° W 23:00:02 14° W 23:00:02 14° W visible
09 Dec 7.5 18:22:38 10° W 18:32:08 88° S 18:40:25 14° E visible
09 Dec 7.7 20:27:29 10° WNW 20:36:32 59° SSW 20:38:27 51° SSE visible
09 Dec 9.2 22:33:08 10° W 22:36:30 19° WSW 22:36:30 19° WSW visible
10 Dec 7.5 17:57:25 10° W 18:06:57 88° S 18:16:12 10° E visible
10 Dec 7.7 20:02:17 10° WNW 20:11:26 62° SSW 20:15:00 39° SE visible
10 Dec 9.0 22:07:46 10° W 22:13:03 23° WSW 22:13:03 23° WSW visible
11 Dec 7.6 17:32:12 10° W 17:41:46 89° S 17:51:03 10° E visible
11 Dec 7.7 19:37:05 10° WNW 19:46:18 65° SSW 19:51:38 28° SE visible
11 Dec 8.7 21:42:25 10° W 21:49:41 27° SW 21:49:41 27° SW visible
12 Dec 7.7 19:11:53 10° WNW 19:21:11 68° SSW 19:28:23 18° SE visible
12 Dec 8.6 21:17:07 10° W 21:24:40 29° SW 21:26:28 27° SSW visible
13 Dec 7.7 18:46:40 10° WNW 18:56:02 71° SSW 19:05:08 10° ESE visible
13 Dec 8.6 20:51:49 10° WNW 20:59:37 32° SW 21:03:23 24° S visible
14 Dec 7.7 18:21:28 10° WNW 18:30:54 73° SSW 18:40:02 10° ESE visible
14 Dec 8.6 20:26:33 10° WNW 20:34:35 34° SW 20:40:30 17° S visible
15 Dec 7.7 17:56:15 10° WNW 18:05:44 76° SSW 18:14:55 10° ESE visible
15 Dec 8.6 20:01:17 10° WNW 20:09:31 37° SW 20:17:37 10° SSE visible
